Date String (YYYY-MM-DD hh:mm:ss) UTC,Instrument flags,Ambient pressure (hPa),Sample flow (lpm),Bypass flow (lpm),Sample temperature (°C),Ambient temperature (°C),ASC tube jacket temperature (°C),LED temperature (°C),Box temperature (°C),Sample RH (%),Span deviation,Mass concentration (μg/m³),Mass concentration (μg/m³),Mass concentration (μg/m³)
DateTimeUTC,F1_M11,P_M11,Q1_M11,Q2_M11,T1_M11,T2_M11,T3_M11,T4_M11,T5_M11,U1_M11,ZSPAN_M11,X2_M11,X0_M11,X1_M11
2022-04-04 14:00:00,,0820.6,5.00,0.00,22.2,21.4,00.0,31.3,24.0,14.2,0000.0,0005.99,0017.85,0004.08
2022-04-04 14:01:00,,0820.6,5.00,0.00,22.2,21.4,00.0,31.3,24.0,14.2,0000.0,0005.96,0017.29,0004.11
2022-04-04 14:02:00,,0820.7,5.01,0.00,22.2,21.4,00.0,31.3,24.0,14.5,0000.0,0005.91,0016.10,0004.13
2022-04-04 14:03:00,,0820.7,5.00,0.00,22.2,21.4,00.0,31.3,23.9,14.8,0000.0,0005.89,0015.47,0004.13
2022-04-04 14:04:00,,0820.7,5.00,0.00,22.2,21.4,00.0,31.3,23.9,14.6,0000.0,0005.88,0015.42,0004.15
2022-04-04 14:05:00,,0820.7,5.00,0.00,22.2,21.4,00.0,31.3,23.9,14.4,0000.0,0005.87,0015.22,0004.17
2022-04-04 14:06:00,,0820.7,5.00,0.00,22.1,21.4,00.0,31.2,23.9,14.5,0000.0,0005.83,0014.81,0004.18
2022-04-04 14:07:00,,0820.7,5.00,0.00,22.1,21.3,00.0,31.2,23.9,14.7,0000.0,0005.83,0014.66,0004.19
2022-04-04 14:08:00,,0820.7,5.00,0.00,22.1,21.3,00.0,31.2,23.9,14.8,0000.0,0005.80,0014.41,0004.19
2022-04-04 14:09:00,,0820.7,5.00,0.00,22.1,21.3,00.0,31.2,23.9,14.9,0000.0,0005.78,0014.58,0004.20
2022-04-04 14:10:00,,0820.7,5.00,0.00,22.1,21.3,00.0,31.2,23.9,14.7,0000.0,0005.88,0015.17,0004.23
2022-04-04 14:11:00,,0820.7,5.01,0.00,22.1,21.3,00.0,31.2,23.9,14.6,0000.0,0005.93,0015.03,0004.25
2022-04-04 14:12:00,,0820.7,5.00,0.00,22.1,21.4,00.0,31.2,23.9,14.6,0000.0,0005.92,0015.41,0004.25
2022-04-04 14:13:00,,0820.6,5.00,0.00,22.1,21.4,00.0,31.2,23.9,14.7,0000.0,0005.98,0016.21,0004.26
2022-04-04 14:14:00,,0820.6,5.00,0.00,22.1,21.4,00.0,31.2,23.9,14.9,0000.0,0006.00,0016.32,0004.28
2022-04-04 14:15:00,,0820.6,5.00,0.00,22.1,21.4,00.0,31.2,24.0,15.0,0000.0,0006.04,0016.21,0004.30
2022-04-04 14:16:00,,0820.6,4.99,0.00,22.1,21.4,00.0,31.2,24.0,14.9,0000.0,0006.07,0016.39,0004.31
2022-04-04 14:17:00,,0820.6,5.00,0.00,22.2,21.5,00.0,31.2,24.0,14.7,0000.0,0006.10,0016.72,0004.31
2022-04-04 14:18:00,,0820.6,5.00,0.00,22.2,21.5,00.0,31.2,24.0,14.6,0000.0,0006.13,0017.46,0004.32
2022-04-04 14:19:00,,0820.6,5.00,0.00,22.2,21.5,00.0,31.2,24.0,14.6,0000.0,0006.16,0017.66,0004.35
2022-04-04 14:20:00,,0820.6,5.01,0.00,22.2,21.5,00.0,31.2,24.0,14.7,0000.0,0006.14,0016.76,0004.35
2022-04-04 14:21:00,,0820.6,5.01,0.00,22.2,21.5,00.0,31.2,24.0,14.6,0000.0,0006.07,0016.22,0004.35
2022-04-04 14:22:00,,0820.6,4.99,0.00,22.2,21.5,00.0,31.2,24.0,14.5,0000.0,0006.02,0015.81,0004.35
2022-04-04 14:23:00,,0820.6,4.99,0.00,22.2,21.5,00.0,31.2,24.0,14.6,0000.0,0006.06,0015.43,0004.36
2022-04-04 14:24:00,,0820.6,5.00,0.00,22.2,21.5,00.0,31.2,24.0,14.5,0000.0,0006.06,0014.80,0004.35
2022-04-04 14:25:00,,0820.6,5.00,0.00,22.2,21.5,00.0,31.2,24.0,14.2,0000.0,0006.03,0014.56,0004.34
2022-04-04 14:26:00,,0820.6,5.01,0.00,22.2,21.5,00.0,31.2,24.0,14.1,0000.0,0005.99,0014.02,0004.33
2022-04-04 14:27:00,,0820.6,4.99,0.00,22.3,21.6,00.0,31.2,24.1,13.9,0000.0,0005.95,0013.62,0004.31
2022-04-04 14:28:00,,0820.6,5.00,0.00,22.3,21.6,00.0,31.2,24.1,13.9,0000.0,0005.97,0014.69,0004.30
2022-04-04 14:29:00,,0820.6,5.00,0.00,22.3,21.6,00.0,31.2,24.2,13.7,0000.0,0005.94,0013.79,0004.29
2022-04-04 14:30:00,,0820.6,5.00,0.00,22.4,21.7,00.0,31.2,24.2,13.9,0000.0,0005.92,0013.30,0004.26
2022-04-04 14:31:00,,0820.6,5.00,0.00,22.4,21.7,00.0,31.2,24.2,13.9,0000.0,0005.92,0013.70,0004.23
2022-04-04 14:32:00,,0820.6,5.02,0.00,22.4,21.7,00.0,31.3,24.3,13.7,0000.0,0005.95,0014.37,0004.22
2022-04-04 14:33:00,,0820.6,5.00,0.00,22.5,21.8,00.0,31.3,24.3,13.7,0000.0,0005.93,0015.12,0004.20
2022-04-04 14:34:00,,0820.6,4.99,0.00,22.5,21.8,00.0,31.3,24.3,13.9,0000.0,0005.92,0015.04,0004.20
2022-04-04 14:35:00,,0820.6,5.00,0.00,22.5,21.8,00.0,31.3,24.4,14.0,0000.0,0005.89,0014.96,0004.18
2022-04-04 14:36:00,,0820.6,5.00,0.00,22.6,21.8,00.0,31.3,24.4,14.0,0000.0,0005.90,0015.66,0004.16
2022-04-04 14:37:00,,0820.5,5.00,0.00,22.6,21.9,00.0,31.4,24.4,14.3,0000.0,0005.88,0015.72,0004.16
2022-04-04 14:38:00,,0820.6,5.00,0.00,22.6,21.9,00.0,31.4,24.4,14.4,0000.0,0005.95,0016.04,0004.16
2022-04-04 14:39:00,,0820.6,5.00,0.00,22.6,21.9,00.0,31.4,24.5,14.6,0000.0,0005.89,0014.75,0004.16
2022-04-04 14:40:00,,0820.6,5.00,0.00,22.7,21.9,00.0,31.4,24.5,14.8,0000.0,0005.91,0014.76,0004.16
2022-04-04 14:41:00,,0820.6,5.00,0.00,22.7,22.0,00.0,31.5,24.6,14.5,0000.0,0005.87,0014.60,0004.18
2022-04-04 14:42:00,,0820.5,5.00,0.00,22.7,22.0,00.0,31.5,24.6,14.4,0000.0,0005.86,0014.09,0004.19
2022-04-04 14:43:00,,0820.5,5.00,0.00,22.7,22.0,00.0,31.5,24.6,14.2,0000.0,0005.86,0013.43,0004.18
2022-04-04 14:44:00,,0820.4,5.00,0.00,22.8,22.0,00.0,31.5,24.6,14.6,0000.0,0005.89,0012.91,0004.18
2022-04-04 14:45:00,,0820.4,5.00,0.00,22.8,22.0,00.0,31.6,24.7,14.5,0000.0,0005.92,0013.46,0004.17
2022-04-04 14:46:00,,0820.4,4.99,0.00,22.8,22.1,00.0,31.6,24.7,14.4,0000.0,0005.94,0013.68,0004.19
2022-04-04 14:47:00,,0820.5,5.00,0.00,22.8,22.1,00.0,31.6,24.7,14.4,0000.0,0005.96,0013.20,0004.20
2022-04-04 14:48:00,,0820.5,5.00,0.00,22.8,22.1,00.0,31.6,24.7,14.5,0000.0,0005.95,0013.04,0004.20
2022-04-04 14:49:00,,0820.6,5.01,0.00,22.9,22.1,00.0,31.6,24.8,14.5,0000.0,0005.87,0012.40,0004.20
2022-04-04 14:50:00,,0820.6,5.00,0.00,22.9,22.1,00.0,31.7,24.8,14.6,0000.0,0005.89,0012.40,0004.21
2022-04-04 14:51:00,,0820.6,5.00,0.00,22.9,22.1,00.0,31.7,24.8,14.8,0000.0,0005.94,0012.90,0004.21
2022-04-04 14:52:00,,0820.6,5.00,0.00,22.9,22.2,00.0,31.7,24.8,15.4,0000.0,0005.93,0013.62,0004.21
2022-04-04 14:53:00,,0820.6,5.00,0.00,22.9,22.2,00.0,31.7,24.8,15.6,0000.0,0005.95,0013.78,0004.21
2022-04-04 14:54:00,,0820.6,5.01,0.00,23.0,22.2,00.0,31.8,24.9,15.3,0000.0,0005.91,0013.72,0004.21
2022-04-04 14:55:00,,0820.6,5.00,0.00,23.0,22.2,00.0,31.8,24.9,15.3,0000.0,0005.91,0013.85,0004.23
2022-04-04 14:56:00,,0820.6,5.00,0.00,23.0,22.2,00.0,31.8,24.9,15.6,0000.0,0005.86,0013.59,0004.24
2022-04-04 14:57:00,,0820.6,4.99,0.00,23.0,22.2,00.0,31.8,24.9,15.4,0000.0,0005.89,0014.18,0004.26
2022-04-04 14:58:00,,0820.6,5.00,0.00,23.0,22.3,00.0,31.8,24.9,15.0,0000.0,0005.88,0015.10,0004.27
2022-04-04 14:59:00,,0820.6,5.00,0.00,23.1,22.3,00.0,31.9,24.9,14.9,0000.0,0005.88,0015.69,0004.29
